SCP
0 0 0 0 0 0 0 0 0 0 0 0 0 1 1 2 3 3 3 3 4 4 4 3 3 4 4 4 4 4 5 6 5 5 5 6 6 6 6 5 5 6 6 5
0 0 0 0 0 0 0 0 0 0 0 0 1 1 1 2 3 3 3 3 3 4 4 4 5 5 5 4 4 4 5 5 5 5 5 6 6 6 5 5 5 6 6 5
0 0 0 0 0 0 0 0 0 0 0 0 1 1 2 3 3 2 2 2 2 3 4 6 7 7 5 5 5 5 5 5 5 5 5 5 6 5 5 5 5 5 5 5
0 0 0 0 0 0 0 0 0 0 0 0 1 1 2 3 3 2 2 3 3 3 3 4 6 6 6 5 5 6 6 6 6 5 5 5 5 5 5 5 5 5 5 5
0 0 0 0 0 0 0 0 0 0 0 0 1 1 2 3 2 2 3 3 3 3 2 2 3 4 4 4 4 5 6 7 7 6 5 5 5 5 5 5 5 6 5 5
0 0 0 0 0 0 0 0 0 0 0 0 0 1 1 2 2 2 3 3 3 2 1 1 2 2 2 3 3 4 5 6 6 6 6 6 6 6 5 5 6 5 5 5
0 0 0 0 0 0 0 0 0 0 0 0 0 1 1 1 1 2 2 2 2 2 1 1 1 1 1 2 2 3 3 4 4 5 6 6 6 6 5 5 5 5 5 5
0 0 0 0 0 0 0 0 0 0 0 0 0 1 1 2 2 2 2 2 2 2 1 1 1 1 1 1 1 2 2 2 3 3 4 4 4 4 4 4 4 5 5 5
0 0 0 0 0 0 0 0 0 0 0 0 0 1 1 2 3 2 2 2 2 2 1 1 1 1 1 1 1 1 1 1 2 2 3 2 2 2 3 3 3 4 4 4
0 0 0 0 0 0 0 0 0 0 0 0 0 0 1 2 2 2 2 2 2 2 1 1 1 1 1 1 1 1 1 1 1 2 2 1 1 1 2 2 2 2 2 2
0 0 0 0 0 0 0 0 0 0 0 0 0 0 1 1 2 2 2 2 2 2 2 1 1 1 1 1 1 1 1 1 1 1 1 1 0 1 1 1 1 1 1 1
0 0 0 0 0 0 0 0 0 0 0 0 0 1 1 1 2 2 2 2 2 2 2 1 1 1 1 1 1 1 1 1 1 1 1 0 0 0 0 0 0 0 0 0
0 0 0 0 0 0 0 0 0 0 0 0 0 1 1 2 2 2 2 2 3 3 2 2 1 1 1 1 1 1 1 1 0 0 0 0 0 0 0 0 0 0 0 0
0 0 0 0 0 0 0 0 0 0 0 0 0 1 2 2 2 2 2 3 3 2 2 2 1 1 1 1 1 1 0 0 0 0 0 0 0 0 0 0 0 0 0 0
1 0 0 0 0 0 0 0 0 0 0 0 1 1 2 2 2 2 2 3 2 2 2 1 1 1 0 0 1 0 0 0 0 0 0 0 0 0 0 0 0 0 0 0
1 1 0 0 0 0 0 0 0 0 0 0 1 2 2 2 2 2 3 3 2 2 2 2 1 1 1 1 1 1 0 0 0 0 0 0 0 0 0 0 0 0 0 0
1 1 0 0 0 0 0 0 1 1 1 1 1 2 2 2 2 2 3 3 3 2 2 2 1 1 1 1 1 1 0 0 0 0 0 0 0 0 0 0 0 0 0 0
1 1 0 0 0 0 1 1 1 1 2 2 2 2 2 2 2 2 3 3 3 2 2 2 1 1 1 1 1 1 0 0 0 0 0 0 0 0 0 0 0 0 0 0
0 0 0 0 0 0 1 1 1 1 2 2 2 2 2 2 2 2 3 3 2 2 1 1 1 0 1 1 1 1 0 0 0 0 0 0 0 0 0 0 0 0 0 0
0 0 0 0 0 0 1 1 1 1 1 1 1 1 1 1 2 2 2 2 2 1 1 1 0 0 0 0 0 0 0 0 0 0 0 0 0 0 0 0 0 0 0 0
0 0 0 0 0 0 0 1 1 1 1 1 1 1 1 1 1 1 1 1 1 1 1 0 0 0 0 0 0 0 0 0 0 0 0 0 0 0 0 0 0 0 0 0
0 0 0 0 0 0 0 0 0 1 1 1 1 1 1 1 1 1 1 1 1 1 0 0 0 0 0 0 0 0 0 0 0 0 0 0 0 0 0 0 0 0 0 0
0 0 0 0 0 1 0 0 0 0 0 0 0 1 1 0 1 1 1 1 1 0 0 0 0 0 0 0 0 0 0 0 0 0 0 0 0 0 0 0 0 0 0 0
1 1 0 0 0 0 0 0 0 0 0 0 0 0 0 0 0 1 1 1 0 0 0 0 0 0 0 0 0 0 0 0 0 0 0 0 0 0 0 0 0 0 0 0
0 1 1 0 0 0 0 0 0 0 0 0 0 0 0 0 0 0 0 0 0 0 0 0 0 0 0 0 0 0 0 0 0 0 0 0 0 0 0 0 0 0 0 0
0 1 1 1 0 0 0 0 0 0 0 0 0 0 0 0 0 0 0 0 0 0 0 0 0 0 0 0 0 0 0 0 0 0 0 0 0 0 0 0 0 0 0 0
Wind_Speed
11 12 11 11 12 12 13 11 11 10 10 10 10 12 13 12 10 10 8 9 10 12 11 10 9 9 9 9 8 8 8 8 6 4 3 2 1 1 0 1 2 1 0 1
8 12 11 9 8 10 9 6 8 7 7 7 8 11 11 9 9 9 9 9 11 11 10 9 8 9 9 9 8 8 8 7 6 4 3 2 2 1 1 2 3 2 1 2
9 6 5 5 5 8 7 3 2 5 7 9 8 8 8 6 6 7 7 9 10 9 9 9 9 9 9 9 9 8 8 8 7 6 4 3 2 1 2 2 2 2 2 2
8 5 4 6 6 7 5 3 5 8 9 7 7 5 6 5 6 7 7 7 9 9 9 8 8 8 8 8 8 9 8 8 8 7 6 5 4 3 3 2 2 2 2 2
5 5 6 6 5 4 5 7 8 9 9 7 6 6 6 9 9 9 8 9 9 9 9 9 8 8 8 8 9 9 9 9 9 8 8 6 5 4 3 3 4 3 2 3
8 5 5 4 4 4 7 9 7 7 7 8 7 7 7 9 10 9 10 11 10 10 10 9 8 8 8 8 8 8 9 9 9 9 9 8 7 6 6 5 5 3 3 3
8 8 6 5 5 4 7 5 3 4 4 6 6 5 5 11 12 13 15 14 12 11 10 9 8 8 8 8 8 8 9 9 9 9 9 8 7 7 7 6 5 5 4 4
7 6 7 6 6 4 7 6 4 4 4 4 4 2 5 9 12 14 15 15 13 11 10 9 8 8 7 8 8 8 9 8 8 8 8 8 7 5 5 6 5 5 4 4
4 5 8 7 6 6 7 5 3 5 5 3 3 3 7 8 12 14 16 15 13 11 11 10 9 7 8 8 8 8 8 8 8 8 7 7 8 7 6 6 6 5 5 4
6 6 7 8 8 9 8 5 4 5 4 3 2 0 2 5 7 9 13 13 13 11 11 10 8 8 7 7 7 7 7 7 7 7 6 6 7 6 6 6 7 6 6 5
7 6 6 6 7 6 7 6 5 5 6 5 1 2 2 5 7 10 11 13 13 12 11 9 8 8 7 7 7 7 7 7 7 7 6 6 6 6 6 6 6 6 6 6
6 6 7 8 6 7 7 6 6 6 7 6 5 4 3 4 3 7 12 13 12 12 11 10 9 8 7 7 7 7 7 7 7 6 6 6 6 6 6 6 6 5 6 6
6 5 6 6 5 6 6 8 8 7 7 7 6 3 4 4 4 7 12 13 12 12 11 10 8 7 7 6 6 6 7 6 6 6 6 6 6 6 6 5 5 5 6 6
4 7 7 7 6 4 7 10 10 8 6 7 5 3 5 5 7 9 11 11 11 11 10 10 8 7 6 6 6 6 6 6 6 6 6 6 5 5 5 5 5 5 6 6
4 8 9 9 9 8 10 11 10 9 9 7 5 3 6 7 9 11 12 11 11 11 10 9 8 7 6 6 6 6 6 5 5 5 5 5 5 5 5 6 6 6 7 8
3 7 10 11 10 10 11 9 8 9 9 7 3 4 8 10 10 11 11 10 9 10 10 9 8 7 6 6 6 6 5 5 4 5 5 5 5 5 5 5 6 6 7 7
6 7 10 10 10 10 7 6 6 6 6 6 4 5 9 9 8 9 10 10 10 10 9 9 7 6 6 6 6 5 5 4 4 5 5 5 5 5 5 6 6 7 7 7
7 7 7 9 9 7 3 4 5 5 9 10 9 9 8 9 9 8 9 10 10 10 9 8 7 7 6 6 5 5 4 4 4 5 5 5 5 6 5 6 6 6 6 6
6 6 6 6 6 5 3 8 8 5 7 9 9 10 10 10 9 8 7 9 9 9 8 8 7 7 6 6 5 5 4 4 5 5 5 5 5 5 5 6 6 5 5 5
5 5 6 8 7 3 5 8 8 4 5 8 7 7 7 5 3 5 8 10 10 10 8 8 7 7 6 5 5 4 4 4 4 5 5 4 5 5 5 5 4 4 4 5
3 5 7 8 5 2 9 12 9 4 4 5 5 4 4 3 5 10 11 11 11 10 8 8 7 6 6 5 4 4 5 5 5 5 5 5 5 5 5 4 3 3 4 5
3 3 3 4 2 3 11 9 8 5 3 4 5 6 8 10 12 12 11 11 11 10 9 8 7 6 5 5 4 5 5 5 6 6 5 5 4 4 5 3 3 4 4 5
3 5 3 3 3 3 6 6 5 4 5 5 6 8 9 10 11 11 11 11 10 9 8 7 7 7 5 4 4 6 5 5 6 6 5 4 5 5 4 3 3 2 3 3
5 6 3 3 3 4 6 7 7 7 6 6 7 8 9 10 11 11 11 10 9 8 8 7 7 7 6 5 5 5 5 5 6 6 5 4 4 4 4 3 3 4 4 4
6 4 3 2 4 5 7 7 6 5 6 6 7 8 9 10 10 11 10 10 9 8 7 6 6 6 7 6 5 5 5 5 5 5 5 5 5 5 5 6 6 7 6 5
5 5 4 3 4 3 3 4 3 3 4 6 7 8 8 9 10 10 10 9 9 8 7 7 7 7 7 6 6 5 6 6 5 4 4 4 4 4 5 6 7 11 8 10
Wind_Direction
208 229 231 223 223 241 254 227 207 184 179 208 197 164 177 190 170 148 146 127 112 101 93 82 73 66 60 52 45 36 32 28 19 20 6 351 359 6 23 90 84 67 316 266
212 233 238 233 222 252 263 222 174 168 173 214 198 177 172 172 164 152 148 129 116 108 96 83 74 64 57 48 40 38 31 27 21 13 348 329 336 344 55 63 60 41 19 348
227 237 222 242 229 253 264 276 178 175 198 219 208 192 163 159 139 130 128 120 118 111 100 89 71 57 52 48 40 35 30 27 20 11 2 353 359 15 47 56 61 36 18 12
222 221 205 232 232 245 251 245 234 209 214 216 212 213 175 163 167 166 148 129 119 110 102 91 79 66 54 49 51 43 36 30 22 20 19 12 12 16 20 16 33 43 30 19
226 196 210 236 235 241 268 252 241 240 237 240 218 220 186 175 192 182 155 137 123 113 104 93 81 71 59 51 55 49 41 34 26 24 24 20 24 22 19 17 20 23 32 27
250 214 225 242 247 235 258 253 256 271 262 245 253 248 174 177 190 174 157 140 131 119 110 100 92 82 67 54 53 50 46 38 31 30 28 25 25 24 24 22 14 13 21 23
237 220 216 230 238 241 263 268 276 279 263 262 278 262 159 169 166 163 159 147 138 126 118 112 99 84 70 57 51 50 50 41 32 32 31 27 25 27 31 21 18 14 16 15
253 230 224 221 239 239 252 247 250 268 262 252 258 235 134 135 135 141 140 133 130 125 118 109 93 81 74 67 57 53 51 46 37 34 32 32 28 30 32 26 19 19 17 13
287 265 252 246 234 250 257 265 257 262 276 275 232 148 110 100 117 128 130 131 132 125 118 109 99 88 76 69 62 58 56 51 44 38 34 37 34 33 32 29 27 23 17 12
291 280 249 243 240 237 251 271 274 275 285 266 244 273 133 147 145 144 141 138 133 128 119 111 105 94 84 78 73 66 64 61 54 48 39 42 39 37 36 36 32 27 18 14
295 287 269 256 254 258 260 261 278 289 298 308 280 144 159 194 183 163 149 141 137 132 124 118 110 103 96 85 75 65 62 61 56 50 46 45 42 39 41 41 36 30 21 20
305 297 284 276 286 295 275 282 284 289 303 310 317 107 125 162 170 155 142 133 129 126 124 119 112 105 94 84 76 71 65 62 59 55 50 48 46 42 41 40 34 30 28 26
331 307 295 293 315 329 314 303 294 288 292 293 304 115 140 131 131 135 126 126 126 127 126 119 112 103 94 86 81 76 70 63 61 60 55 49 48 46 42 41 36 31 31 33
289 281 278 276 272 246 276 283 286 280 280 286 307 99 136 133 117 114 120 128 131 132 126 119 112 103 95 87 80 75 69 64 65 64 61 54 47 45 44 44 42 40 41 42
280 282 281 279 275 247 249 265 277 286 288 291 320 77 135 142 137 137 135 133 135 133 127 121 116 110 102 92 84 78 73 67 65 67 67 62 52 50 50 48 45 43 45 52
311 291 293 287 276 267 269 272 283 287 294 304 339 73 98 108 114 123 130 135 141 136 131 125 120 117 109 102 94 88 84 80 75 71 67 67 65 64 61 59 57 57 55 55
297 294 291 285 285 282 274 297 293 292 334 352 5 87 101 109 118 133 141 144 144 135 132 127 124 117 109 104 99 95 90 85 81 78 73 70 71 73 68 67 66 64 62 61
277 289 286 282 288 276 311 356 4 27 41 47 67 76 87 100 105 116 130 139 138 137 134 129 126 120 116 111 105 99 97 97 92 84 77 73 78 77 70 64 61 62 64 66
231 263 279 282 279 274 345 6 355 356 52 41 68 82 87 95 102 98 105 119 126 128 126 125 125 124 121 115 113 114 110 100 93 86 76 73 79 84 79 71 67 65 69 70
209 226 259 278 286 299 12 347 322 317 76 35 67 91 108 129 122 125 122 118 119 119 121 123 124 126 124 119 121 116 110 105 97 91 85 80 82 82 81 76 72 77 80 80
239 237 248 268 281 46 359 343 341 15 38 27 59 89 105 73 76 121 126 123 124 122 124 127 127 124 119 120 119 112 104 100 98 93 89 82 85 91 89 84 78 79 82 84
329 319 323 318 318 29 2 12 34 30 31 53 71 84 87 91 104 117 122 124 126 127 130 130 125 122 121 123 119 111 105 105 103 98 95 90 84 89 92 89 86 86 93 96
25 16 355 16 40 36 29 40 45 37 52 66 85 96 106 113 119 123 125 125 127 127 128 129 127 125 126 125 120 114 113 112 109 106 101 94 84 76 75 79 87 88 86 93
17 12 6 46 72 40 32 41 48 50 55 72 94 109 117 122 127 129 130 132 131 129 134 138 136 136 136 130 119 115 115 113 117 119 119 113 102 96 81 58 53 54 55 61
337 336 355 15 56 54 38 32 38 56 71 81 96 110 120 128 133 133 135 137 137 135 138 141 138 136 131 126 121 122 120 121 122 123 122 120 113 103 84 65 48 60 48 47
3 10 8 18 24 25 22 26 43 58 85 101 106 111 121 128 133 136 137 139 139 141 145 143 142 138 132 128 124 122 122 121 120 122 126 119 119 125 120 109 84 54 66 65